Regional Weather Roundup
Issued by NWS Green Bay, WI

Home | Current Version | Previous Version | Text Only | Print | Product List | Glossary On
Versions: 1 2 3 4 5 6 7 8 9 10 11 12 13 14 15 16 17 18 19 20 21 22 23 24 25 26 27 28 29 30 31 32 33 34 35 36 37 38 39 40 41 42 43 44 45 46 47 48 49 50
000
ASUS43 KGRB 151610
RWRGRB

NORTH-CENTRAL AND NORTHEAST WISCONSIN REGIONAL WEATHER ROUNDUP
NATIONAL WEATHER SERVICE GREEN BAY WI
1100 AM CDT SUN SEP 15 2019

WIZ005-009-010>012-018-019-151700-
NORTH CENTRAL WISCONSIN

CITY           SKY/WX    TMP DP  RH WIND       PRES   REMARKS
IRONWOOD       CLOUDY    64  60  87 S7        30.02R
MANITOWISH WTR CLOUDY    62  62 100 SE7       30.03S
ARBOR VITAE    CLOUDY    62  57  83 SE6       30.03S
EAGLE RIVER    CLOUDY    62  59  90 SE5       30.04F
LAND O LAKES   LGT RAIN  60  58  92 SE3       30.07S
RHINELANDER    CLOUDY    61  58  90 SE7       30.04F
PHILLIPS       CLOUDY    66  63  91 S5        30.02S
ANTIGO         CLOUDY    60  60  99 SE5       30.05S
TOMAHAWK       CLOUDY    63  60  91 CALM      30.04S
MERRILL        CLOUDY    63  62  96 SE5       30.03F
$$

WIZ013-073-151700-
NORTHEAST WISCONSIN

CITY           SKY/WX    TMP DP  RH WIND       PRES   REMARKS
IRON MOUNTAIN  CLOUDY    61  58  90 E7        30.05S
MARINETTE      CLOUDY    64  60  87 E7        30.04F
OCONTO         CLOUDY    64  61  90 E3        30.03F
$$

WIZ017-030-035>037-045-151700-
CENTRAL WISCONSIN

CITY           SKY/WX    TMP DP  RH WIND       PRES   REMARKS
MEDFORD        CLOUDY    63  61  93 SE5       30.02S
WAUSAU         CLOUDY    63  61  93 SE5       30.01S
MOSINEE        CLOUDY    64  59  82 CALM      30.03S
MARSHFIELD     CLOUDY    65  63  93 E5        30.01R
WISC RAPIDS    CLOUDY    70  64  81 SE3       30.01S
STEVENS POINT  CLOUDY    65  63  94 E3        30.03R
WAUPACA        CLOUDY    71  65  82 CALM      30.02S
SHAWANO        CLOUDY    64  63  97 CALM      30.03F FOG
CLINTONVILLE   NOT AVBL
WAUTOMA        CLOUDY    70  65  84 S3        30.02R
$$

WIZ038-039-048-051-151700-
FOX VALLEY

CITY           SKY/WX    TMP DP  RH WIND       PRES   REMARKS
NWS GREEN BAY  PTSUNNY   71  64  78 VRB6      30.02F
APPLETON       PTSUNNY   73  61  64 VRB5      30.01F
OSHKOSH        CLOUDY    71  65  81 S9        30.02S
FOND DU LAC    CLOUDY    72  65  78 S8        30.03S
$$

WIZ022-050-052-151700-
EAST CENTRAL WISCONSIN

CITY           SKY/WX    TMP DP  RH WIND       PRES   REMARKS
EPHRAIM        CLOUDY    63  60  90 E8        30.03F
WASHINGTON ISL CLOUDY    62  59  88 E6        30.04F
STURGEON BAY   CLOUDY    67  63  87 MISG      30.04S
MANITOWOC      CLOUDY    66  64  93 S10       30.05R
SHEBOYGAN      CLOUDY    68  64  87 S8        30.05S
$$

LMZ563-521-522-541>543-151700-
LAKESHORE

STATION/POSITION TIME  TEMP    WIND        PRES    VSBY  WAVE
                       AIR SEA DIR/SP/G                  HT/PER
                 (UTC) (F)     (DEG/KT/KT) (MB)    (MI)  (FT/S)
$$



USA.gov is the U.S. government's official web portal to all federal, state and local government web resources and services.